CW2597 Weather Reports


Display with metric or nautical units.
time (UTC)temp
F
wind
direction
speed
MPH
gust
MPH
rain 1hr
in
rain 24hr
in
rain mn
in
humidity
%
barometer
mb
20260510220705 46 353 0.0 1.0 0.00 0.00 0.00 80 1008.7
20260510220512 47 312 0.0 0.0 0.00 0.00 0.00 80 1007.6
20260510220205 47 329 0.0 0.0 0.00 0.00 0.00 80 1008.7
20260510215706 47 282 0.0 0.0 0.00 0.00 0.00 80 1008.7
20260510215512 47 281 0.0 0.0 0.00 0.00 0.00 79 1007.7
20260510215205 47 297 0.0 0.0 0.00 0.00 0.00 79 1008.8
20260510214705 47 345 0.0 0.0 0.00 0.00 0.00 80 1008.9
20260510214512 47 312 0.0 0.0 0.00 0.00 0.00 80 1007.8
20260510214205 47 304 0.0 0.0 0.00 0.00 0.00 79 1009.0
20260510213705 47 346 0.0 0.0 0.00 0.00 0.00 79 1009.1
20260510213512 47 359 0.0 0.0 0.00 0.00 0.00 79 1008.1
20260510213205 47 344 0.0 0.0 0.00 0.00 0.00 79 1009.1
20260510212706 47 0 0.0 0.0 0.00 0.00 0.00 79 1009.1
20260510212511 47 360 0.0 0.0 0.00 0.00 0.00 79 1008.1
20260510212205 47 354 0.0 0.0 0.00 0.00 0.00 79 1009.1
20260510211706 47 286 0.0 0.0 0.00 0.00 0.00 78 1009.1
20260510211511 47 328 0.0 0.0 0.00 0.00 0.00 78 1008.1
20260510211205 48 351 0.0 0.0 0.00 0.00 0.00 78 1009.1
20260510210705 48 305 0.0 0.0 0.00 0.00 0.00 78 1009.3
20260510210511 48 278 0.0 0.0 0.00 0.00 0.00 78 1008.2
20260510210205 48 276 0.0 0.0 0.00 0.00 0.00 78 1009.4
20260510205512 48 277 0.0 0.0 0.00 0.00 0.00 78 1008.3
20260510205205 49 324 0.0 0.0 0.00 0.00 0.00 78 1009.5
20260510204706 49 349 0.0 0.0 0.00 0.00 0.00 78 1009.6
20260510204511 49 289 0.0 1.0 0.00 0.00 0.00 77 1008.5
20260510204205 49 15 0.0 1.0 0.00 0.00 0.00 77 1009.5
20260510203705 49 302 0.0 0.0 0.00 0.00 0.00 77 1009.6
20260510203206 49 6 0.0 0.0 0.00 0.00 0.00 77 1009.8
20260510202705 49 350 1.0 7.0 0.00 0.00 0.00 77 1009.8
20260510202205 50 341 0.0 0.0 0.00 0.00 0.00 76 1009.8
20260510201705 50 325 0.0 0.0 0.00 0.00 0.00 76 1009.8
20260510201511 50 345 0.0 0.0 0.00 0.00 0.00 76 1008.8
20260510201205 50 336 0.0 0.0 0.00 0.00 0.00 76 1009.8
20260510200705 50 311 0.0 0.0 0.00 0.00 0.00 75 1009.8
20260510200511 50 328 0.0 1.0 0.00 0.00 0.00 75 1008.7
20260510200205 50 13 0.0 1.0 0.00 0.00 0.00 75 1009.7
20260510195705 50 358 1.0 7.0 0.00 0.00 0.00 75 1009.8
20260510195511 51 356 0.0 0.0 0.00 0.00 0.00 75 1008.7
20260510195205 51 354 0.0 0.0 0.00 0.00 0.00 75 1009.8
20260510194705 51 1 0.0 0.0 0.00 0.00 0.00 75 1009.8
20260510194511 51 232 0.0 0.0 0.00 0.00 0.00 75 1008.8
20260510193705 51 283 0.0 0.0 0.00 0.00 0.00 75 1009.9
20260510193512 51 30 0.0 0.0 0.00 0.00 0.00 75 1008.8
20260510192511 51 296 0.0 3.0 0.00 0.00 0.00 74 1008.7
20260510192204 51 260 0.0 0.0 0.00 0.00 0.00 74 1009.7
20260510191705 52 9 0.0 2.0 0.00 0.00 0.00 73 1009.8
20260510191511 52 345 0.0 0.0 0.00 0.00 0.00 73 1008.7
20260510190705 52 306 0.0 0.0 0.00 0.00 0.00 73 1009.8
20260510190204 52 4 0.0 0.0 0.00 0.00 0.00 73 1009.9
20260510185705 52 350 0.0 0.0 0.00 0.00 0.00 73 1009.9
20260510185511 53 314 0.0 0.0 0.00 0.00 0.00 72 1008.8
20260510185204 53 307 0.0 0.0 0.00 0.00 0.00 72 1009.9
20260510184705 53 347 0.0 2.0 0.00 0.00 0.00 72 1009.8
20260510184511 53 26 0.0 5.0 0.00 0.00 0.00 72 1008.8
20260510184205 53 346 1.0 5.0 0.00 0.00 0.00 71 1009.8
20260510183705 54 321 0.0 0.0 0.00 0.00 0.00 71 1009.9
20260510183205 54 338 0.0 1.0 0.00 0.00 0.00 72 1009.9
20260510182705 54 331 0.0 1.0 0.00 0.00 0.00 71 1009.9
20260510182205 54 344 0.0 1.0 0.00 0.00 0.00 71 1009.8
20260510181705 55 3 0.0 3.0 0.00 0.00 0.00 71 1009.8
20260510181511 55 24 0.0 4.0 0.00 0.00 0.00 70 1008.8
20260510181204 55 333 0.0 3.0 0.00 0.00 0.00 70 1009.8
20260510180705 55 347 0.0 0.0 0.00 0.00 0.00 70 1009.8
20260510180511 56 9 0.0 0.0 0.00 0.00 0.00 69 1008.8
20260510180205 56 16 0.0 0.0 0.00 0.00 0.00 70 1009.9
20260510175511 56 340 0.0 1.0 0.00 0.00 0.00 70 1008.8
20260510174705 56 334 0.0 0.0 0.00 0.00 0.00 70 1009.8
20260510174205 56 340 0.0 0.0 0.00 0.00 0.00 70 1009.8
20260510173705 57 325 0.0 0.0 0.00 0.00 0.00 70 1009.8
20260510173511 57 309 0.0 1.0 0.00 0.00 0.00 70 1008.8
20260510173204 57 333 0.0 0.0 0.00 0.00 0.00 70 1009.8
20260510172705 57 325 0.0 3.0 0.00 0.00 0.00 70 1009.8
20260510172511 57 301 0.0 4.0 0.00 0.00 0.00 70 1008.8
20260510171705 57 352 0.0 0.0 0.00 0.00 0.00 69 1009.9
20260510171511 57 7 0.0 1.0 0.00 0.00 0.00 69 1008.8
20260510171205 57 329 0.0 3.0 0.00 0.00 0.00 69 1009.9
20260510170705 58 348 1.0 3.0 0.00 0.00 0.00 69 1010.0
20260510170511 58 324 0.0 4.0 0.00 0.00 0.00 69 1008.9
20260510170204 58 319 0.0 9.0 0.00 0.00 0.00 69 1010.0
20260510165705 59 348 1.0 3.0 0.00 0.00 0.00 68 1010.0
20260510165511 59 350 1.0 8.0 0.00 0.00 0.00 68 1009.0
20260510165205 59 324 1.0 8.0 0.00 0.00 0.00 68 1010.0
20260510164705 60 346 0.0 3.0 0.00 0.00 0.00 67 1010.0
20260510164511 60 10 0.0 0.0 0.00 0.00 0.00 68 1009.0
20260510164205 60 253 0.0 3.0 0.00 0.00 0.00 68 1010.0
20260510163705 60 331 1.0 6.0 0.00 0.00 0.00 68 1010.0
20260510163510 60 47 0.0 4.0 0.00 0.00 0.00 68 1009.0
20260510163205 60 348 0.0 0.0 0.00 0.00 0.00 68 1010.1
20260510162705 60 354 1.0 6.0 0.00 0.00 0.00 67 1010.1
20260510162511 60 340 0.0 6.0 0.00 0.00 0.00 68 1009.2
20260510162205 60 340 0.0 3.0 0.00 0.00 0.00 68 1010.2
20260510161705 60 323 1.0 3.0 0.00 0.00 0.00 67 1010.3
20260510161511 61 10 0.0 1.0 0.00 0.00 0.00 67 1009.3
20260510161205 61 357 0.0 0.0 0.00 0.00 0.00 67 1010.3
20260510160705 61 298 0.0 1.0 0.00 0.00 0.00 66 1010.3
20260510160205 61 321 0.0 1.0 0.00 0.00 0.00 67 1010.2
20260510155705 62 6 1.0 5.0 0.00 0.00 0.00 66 1010.3
20260510155511 62 15 0.0 8.0 0.00 0.00 0.00 67 1009.3
20260510155205 62 9 0.0 2.0 0.00 0.00 0.00 66 1010.4
20260510154705 62 339 0.0 0.0 0.00 0.00 0.00 67 1010.4
20260510154511 62 322 0.0 1.0 0.00 0.00 0.00 66 1009.4
20260510154204 62 319 0.0 1.0 0.00 0.00 0.00 66 1010.3
20260510153511 62 354 0.0 5.0 0.00 0.00 0.00 66 1009.3
20260510153205 62 48 0.0 1.0 0.00 0.00 0.00 65 1010.3
20260510152704 62 8 0.0 0.0 0.00 0.00 0.00 67 1010.3
20260510151705 62 8 0.0 1.0 0.00 0.00 0.00 68 1010.5
20260510151511 62 308 0.0 1.0 0.00 0.00 0.00 67 1009.5
20260510151205 62 281 0.0 1.0 0.00 0.00 0.00 67 1010.5
20260510150705 62 357 0.0 3.0 0.00 0.00 0.00 67 1010.5
20260510150511 62 333 0.0 6.0 0.00 0.00 0.00 67 1009.5
20260510145704 63 348 1.0 9.0 0.00 0.00 0.00 66 1010.5
20260510145511 63 340 1.0 9.0 0.00 0.00 0.00 66 1009.5
20260510145204 63 6 0.0 2.0 0.00 0.00 0.00 66 1010.5
20260510144511 63 4 0.0 0.0 0.00 0.00 0.00 65 1009.5
20260510144205 63 285 0.0 1.0 0.00 0.00 0.00 65 1010.5
20260510143705 64 3 0.0 0.0 0.00 0.00 0.00 64 1010.6
20260510143511 64 340 0.0 1.0 0.00 0.00 0.00 65 1009.5
20260510143204 64 332 0.0 1.0 0.00 0.00 0.00 64 1010.6
20260510142704 65 291 0.0 1.0 0.00 0.00 0.00 63 1010.7
20260510142511 65 29 0.0 0.0 0.00 0.00 0.00 64 1009.7
20260510141511 65 297 0.0 0.0 0.00 0.00 0.00 65 1009.7
20260510141204 65 319 0.0 1.0 0.00 0.00 0.00 65 1010.8
20260510140704 65 324 0.0 5.0 0.00 0.00 0.00 63 1010.8
20260510140511 65 340 0.0 5.0 0.00 0.00 0.00 64 1009.9
20260510135704 65 343 1.0 8.0 0.00 0.00 0.00 64 1010.9
20260510135511 65 355 0.0 5.0 0.00 0.00 0.00 65 1009.9
20260510135204 64 307 0.0 3.0 0.00 0.00 0.00 65 1011.0
20260510134705 65 317 1.0 3.0 0.00 0.00 0.00 65 1010.9
20260510134511 65 38 0.0 3.0 0.00 0.00 0.00 67 1009.9
20260510134205 65 320 0.0 0.0 0.00 0.00 0.00 64 1011.0
20260510133704 66 353 0.0 3.0 0.00 0.00 0.00 65 1011.2
20260510133511 65 271 0.0 2.0 0.00 0.00 0.00 63 1010.2
20260510133204 66 0 0.0 3.0 0.00 0.00 0.00 65 1011.2
20260510132511 66 316 0.0 1.0 0.00 0.00 0.00 64 1010.3
20260510131705 65 303 0.0 0.0 0.00 0.00 0.00 64 1011.3
20260510131511 65 13 0.0 0.0 0.00 0.00 0.00 63 1010.2
20260510131205 65 346 0.0 1.0 0.00 0.00 0.00 65 1011.2
20260510130704 65 343 0.0 0.0 0.00 0.00 0.00 63 1011.3
20260510130205 66 310 0.0 0.0 0.00 0.00 0.00 62 1011.4
20260510125704 66 329 0.0 2.0 0.00 0.00 0.00 64 1011.4
20260510125512 66 290 0.0 2.0 0.00 0.00 0.00 64 1010.4
20260510125204 65 289 1.0 7.0 0.00 0.00 0.00 65 1011.4
20260510124704 65 326 0.0 3.0 0.00 0.00 0.00 63 1011.5
20260510124511 65 259 1.0 3.0 0.00 0.00 0.00 63 1010.5
20260510124205 65 316 1.0 3.0 0.00 0.00 0.00 62 1011.6
20260510123511 65 279 0.0 0.0 0.00 0.00 0.00 62 1010.5
20260510123204 66 5 0.0 0.0 0.00 0.00 0.00 64 1011.6
20260510122704 66 335 0.0 0.0 0.00 0.00 0.00 62 1011.6
20260510121205 67 304 0.0 0.0 0.00 0.00 0.00 60 1011.8
20260510120704 67 21 0.0 0.0 0.00 0.00 0.00 61 1011.8
20260510120511 67 27 0.0 0.0 0.00 0.00 0.00 61 1010.7
20260510120204 66 4 0.0 0.0 0.00 0.00 0.00 64 1011.8
20260510115705 65 5 0.0 0.0 0.00 0.00 0.00 63 1012.0
20260510115511 65 357 0.0 0.0 0.00 0.00 0.00 64 1010.9
20260510115204 64 14 0.0 0.0 0.00 0.00 0.00 64 1012.0
20260510114204 64 357 0.0 0.0 0.00 0.00 0.00 65 1012.1
20260510113704 64 5 0.0 0.0 0.00 0.00 0.00 66 1012.1
20260510113513 64 5 0.0 0.0 0.00 0.00 0.00 65 1011.1
20260510113204 64 19 0.0 0.0 0.00 0.00 0.00 66 1012.1
20260510112704 64 283 0.0 0.0 0.00 0.00 0.00 67 1012.2
20260510112513 64 32 0.0 0.0 0.00 0.00 0.00 67 1011.2
20260510112204 64 56 0.0 0.0 0.00 0.00 0.00 67 1012.2
20260510111513 64 12 0.0 0.0 0.00 0.00 0.00 64 1011.2
20260510111204 65 49 0.0 0.0 0.00 0.00 0.00 63 1012.3
20260510110513 65 24 0.0 0.0 0.00 0.00 0.00 64 1011.2
20260510105704 65 254 0.0 0.0 0.00 0.00 0.00 67 1012.3
20260510105513 65 291 0.0 0.0 0.00 0.00 0.00 67 1011.3
20260510105205 65 338 0.0 0.0 0.00 0.00 0.00 67 1012.4
20260510104204 64 302 0.0 0.0 0.00 0.00 0.00 67 1012.4
20260510103704 64 353 0.0 1.0 0.00 0.00 0.00 68 1012.5
20260510103513 64 360 0.0 1.0 0.00 0.00 0.00 70 1011.4
20260510103204 64 312 0.0 0.0 0.00 0.00 0.00 68 1012.5
20260510101704 64 289 0.0 0.0 0.00 0.00 0.00 70 1012.7
20260510101513 64 357 0.0 0.0 0.00 0.00 0.00 68 1011.7
20260510101205 63 11 0.0 0.0 0.00 0.00 0.00 69 1012.7
20260510095704 64 3 0.0 0.0 0.00 0.00 0.00 69 1012.8
20260510095513 64 356 0.0 0.0 0.00 0.00 0.00 68 1011.8
20260510095204 64 4 0.0 0.0 0.00 0.00 0.00 68 1012.9
20260510094704 63 334 0.0 0.0 0.00 0.00 0.00 69 1012.9
20260510094204 63 2 0.0 0.0 0.00 0.00 0.00 70 1012.9
20260510093704 63 348 0.0 0.0 0.00 0.00 0.00 69 1012.9
20260510093513 62 300 0.0 0.0 0.00 0.00 0.00 70 1011.9
20260510092704 62 319 0.0 0.0 0.00 0.00 0.00 71 1013.0
20260510092513 62 350 0.0 0.0 0.00 0.00 0.00 71 1012.0
20260510092204 62 349 0.0 0.0 0.00 0.00 0.00 71 1013.1
20260510091704 61 15 0.0 0.0 0.00 0.00 0.00 71 1013.1
20260510091513 61 9 0.0 0.0 0.00 0.00 0.00 72 1012.1
20260510091204 61 359 0.0 0.0 0.00 0.00 0.00 72 1013.1
20260510090704 61 23 0.0 0.0 0.00 0.00 0.00 73 1013.0
20260510090513 61 90 0.0 0.0 0.00 0.00 0.00 74 1012.0
20260510085704 61 355 0.0 0.0 0.00 0.00 0.00 72 1013.0
20260510085513 61 15 0.0 0.0 0.00 0.00 0.00 72 1012.0
20260510084704 60 354 0.0 0.0 0.00 0.00 0.00 74 1013.0
20260510084513 60 315 0.0 0.0 0.00 0.00 0.00 74 1012.0
20260510084204 60 358 0.0 0.0 0.00 0.00 0.00 74 1013.1
20260510083512 60 340 0.0 0.0 0.00 0.00 0.00 72 1012.1
20260510083204 60 297 0.0 0.0 0.00 0.00 0.00 74 1013.1
20260510082704 60 283 0.0 0.0 0.00 0.00 0.00 75 1013.1
20260510082513 60 315 0.0 0.0 0.00 0.00 0.00 74 1012.1
20260510082204 60 353 0.0 0.0 0.00 0.00 0.00 73 1013.1
20260510081704 60 335 0.0 0.0 0.00 0.00 0.00 74 1013.1
20260510081513 60 25 0.0 0.0 0.00 0.00 0.00 75 1012.1
20260510081204 59 279 0.0 0.0 0.00 0.00 0.00 75 1013.1
20260510080705 59 279 0.0 0.0 0.00 0.00 0.00 75 1013.1
20260510080513 59 279 0.0 0.0 0.00 0.00 0.00 76 1012.1
20260510080204 59 279 0.0 0.0 0.00 0.00 0.00 76 1013.2
20260510075513 58 279 0.0 0.0 0.00 0.00 0.00 76 1012.2
20260510075204 58 279 0.0 0.0 0.00 0.00 0.00 77 1013.3
20260510074704 58 279 0.0 0.0 0.00 0.00 0.00 76 1013.3
20260510074204 58 314 0.0 0.0 0.00 0.00 0.00 77 1013.3
20260510073513 57 289 0.0 0.0 0.00 0.00 0.00 77 1012.3
20260510073204 57 9 0.0 0.0 0.00 0.00 0.00 77 1013.4
20260510072512 57 9 0.0 0.0 0.00 0.00 0.00 77 1012.4
20260510072204 57 9 0.0 0.0 0.00 0.00 0.00 78 1013.4
20260510071704 57 9 0.0 0.0 0.00 0.00 0.00 77 1013.5
20260510071204 57 9 0.0 0.0 0.00 0.00 0.00 78 1013.6
20260510070704 57 9 0.0 0.0 0.00 0.00 0.00 80 1013.6
20260510070513 56 9 0.0 0.0 0.00 0.00 0.00 80 1012.6
20260510070204 56 9 0.0 0.0 0.00 0.00 0.00 79 1013.6
20260510065703 55 9 0.0 0.0 0.00 0.00 0.00 79 1013.6
20260510065204 55 9 0.0 0.0 0.00 0.00 0.00 80 1013.6
20260510064703 55 9 0.0 0.0 0.00 0.00 0.00 80 1013.6
20260510064512 55 9 0.0 0.0 0.00 0.00 0.00 80 1012.6
20260510064204 54 9 0.0 0.0 0.00 0.00 0.00 81 1013.5
20260510063704 54 7 0.0 0.0 0.00 0.00 0.00 81 1013.5
20260510063513 54 8 0.0 0.0 0.00 0.00 0.00 81 1012.5
20260510062704 54 66 0.0 0.0 0.00 0.00 0.00 82 1013.5
20260510062512 54 66 0.0 0.0 0.00 0.00 0.00 82 1012.5
20260510062204 53 66 0.0 0.0 0.00 0.00 0.00 83 1013.5
20260510061705 53 66 0.0 0.0 0.00 0.00 0.00 83 1013.6
20260510061513 53 66 0.0 0.0 0.00 0.00 0.00 83 1012.6
20260510061204 53 66 0.0 0.0 0.00 0.00 0.00 83 1013.6
20260510060704 53 66 0.0 0.0 0.00 0.00 0.00 83 1013.7
20260510060512 53 66 0.0 0.0 0.00 0.00 0.00 84 1012.6
20260510060204 52 66 0.0 0.0 0.00 0.00 0.00 84 1013.7
20260510055704 52 66 0.0 0.0 0.00 0.00 0.00 84 1013.7
20260510055513 52 66 0.0 0.0 0.00 0.00 0.00 85 1012.7
20260510055204 52 66 0.0 0.0 0.00 0.00 0.00 86 1013.7
20260510054704 51 66 0.0 0.0 0.00 0.00 0.00 87 1013.8
20260510054513 51 66 0.0 0.0 0.00 0.00 0.00 87 1012.7
20260510054204 51 66 0.0 0.0 0.00 0.00 0.00 88 1013.8
20260510053704 51 66 0.0 0.0 0.00 0.00 0.00 88 1013.8
20260510053513 50 66 0.0 0.0 0.00 0.00 0.00 88 1012.9
20260510053204 50 66 0.0 0.0 0.00 0.00 0.00 88 1013.9
20260510052704 50 66 0.0 0.0 0.00 0.00 0.00 89 1013.8
20260510052513 50 66 0.0 0.0 0.00 0.00 0.00 89 1012.8
20260510051704 50 66 0.0 0.0 0.00 0.00 0.00 89 1013.8
20260510051512 50 66 0.0 0.0 0.00 0.00 0.00 90 1012.7
20260510051203 49 66 0.0 0.0 0.00 0.00 0.00 90 1013.8
20260510050706 49 66 0.0 0.0 0.00 0.00 0.00 91 1013.8
20260510045706 48 66 0.0 0.0 0.00 0.00 0.00 91 1013.8
20260510045512 48 66 0.0 0.0 0.00 0.00 0.00 91 1012.7
20260510044706 47 66 0.0 0.0 0.00 0.00 0.00 90 1013.8
20260510044513 47 66 0.0 0.0 0.00 0.00 0.00 90 1012.7
20260510044206 46 66 0.0 0.0 0.00 0.00 0.00 90 1013.7
20260510043706 46 66 0.0 0.0 0.00 0.00 0.00 90 1013.8
20260510043512 46 66 0.0 0.0 0.00 0.00 0.00 90 1012.6
20260510043206 46 66 0.0 0.0 0.00 0.00 0.00 90 1013.8
20260510042706 46 66 0.0 0.0 0.00 0.00 0.00 89 1013.8
20260510042512 46 66 0.0 0.0 0.00 0.00 0.00 89 1012.6
20260510042206 46 66 0.0 0.0 0.00 0.00 0.00 89 1013.8
20260510041706 46 66 0.0 0.0 0.00 0.00 0.00 89 1013.8
20260510041513 46 66 0.0 0.0 0.00 0.00 0.00 89 1012.7
20260510041205 46 66 0.0 0.0 0.00 0.00 0.00 89 1013.8
20260510040705 46 66 0.0 0.0 0.00 0.00 0.00 88 1013.8
20260510040513 46 66 0.0 0.0 0.00 0.00 0.00 88 1012.8
20260510040205 46 66 0.0 0.0 0.00 0.00 0.00 88 1014.0
20260510035706 46 66 0.0 0.0 0.00 0.00 0.00 88 1014.0
20260510035513 46 66 0.0 0.0 0.00 0.00 0.00 88 1012.8
20260510035205 46 66 0.0 0.0 0.00 0.00 0.00 88 1013.9
20260510034706 46 66 0.0 0.0 0.00 0.00 0.00 88 1014.0
20260510034513 46 66 0.0 0.0 0.00 0.00 0.00 88 1012.9
20260510034205 46 66 0.0 0.0 0.00 0.00 0.00 87 1014.1
20260510033706 46 66 0.0 0.0 0.00 0.00 0.00 87 1014.0
20260510033206 47 66 0.0 0.0 0.00 0.00 0.00 87 1014.0
20260510032706 47 66 0.0 0.0 0.00 0.00 0.00 87 1014.1
20260510032513 47 66 0.0 0.0 0.00 0.00 0.00 87 1013.1
20260510031706 47 66 0.0 0.0 0.00 0.00 0.00 86 1014.2
20260510031512 47 66 0.0 0.0 0.00 0.00 0.00 86 1013.1
20260510030513 48 66 0.0 0.0 0.00 0.00 0.00 86 1013.1
20260510025705 49 66 0.0 0.0 0.00 0.00 0.00 86 1014.1
20260510025512 49 66 0.0 0.0 0.00 0.00 0.00 86 1013.1
20260510025205 49 66 0.0 0.0 0.00 0.00 0.00 86 1014.1
20260510024705 49 66 0.0 0.0 0.00 0.00 0.00 86 1014.1
20260510024513 49 66 0.0 0.0 0.00 0.00 0.00 86 1013.1
20260510024205 50 66 0.0 0.0 0.00 0.00 0.00 86 1014.1
20260510023705 50 66 0.0 0.0 0.00 0.00 0.00 86 1014.2
20260510023513 50 66 0.0 0.0 0.00 0.00 0.00 86 1013.2
20260510023205 50 66 0.0 0.0 0.00 0.00 0.00 86 1014.2
20260510022706 50 66 0.0 0.0 0.00 0.00 0.00 86 1014.2
20260510022512 50 66 0.0 0.0 0.00 0.00 0.00 86 1013.2
20260510022206 50 66 0.0 0.0 0.00 0.00 0.00 85 1014.3
20260510021705 50 66 0.0 0.0 0.00 0.00 0.00 85 1014.3
20260510021511 50 66 0.0 0.0 0.00 0.00 0.00 85 1013.2
20260510021205 50 66 0.0 0.0 0.00 0.00 0.00 85 1014.4
20260510020705 51 66 0.0 0.0 0.00 0.00 0.00 85 1014.4
20260510020513 51 66 0.0 0.0 0.00 0.00 0.00 85 1013.3
20260510020205 51 66 0.0 0.0 0.00 0.00 0.00 85 1014.4
20260510015706 51 66 0.0 0.0 0.00 0.00 0.00 84 1014.4
20260510015513 51 66 0.0 0.0 0.00 0.00 0.00 84 1013.4
20260510014706 51 66 0.0 0.0 0.00 0.00 0.00 84 1014.4
20260510014513 51 66 0.0 0.0 0.00 0.00 0.00 84 1013.4
20260510013705 51 66 0.0 0.0 0.00 0.00 0.00 84 1014.4
20260510013513 51 66 0.0 0.0 0.00 0.00 0.00 84 1013.5
20260510013205 51 66 0.0 0.0 0.00 0.00 0.00 83 1014.5
20260510012705 51 66 0.0 0.0 0.00 0.00 0.00 83 1014.5
20260510012513 51 66 0.0 0.0 0.00 0.00 0.00 83 1013.4
20260510012205 52 66 0.0 0.0 0.00 0.00 0.00 83 1014.5
20260510011705 52 66 0.0 0.0 0.00 0.00 0.00 83 1014.5
20260510011513 52 66 0.0 0.0 0.00 0.00 0.00 83 1013.5
20260510011205 52 66 0.0 0.0 0.00 0.00 0.00 82 1014.5
20260510010706 52 66 0.0 0.0 0.00 0.00 0.00 82 1014.5
20260510010205 52 66 0.0 0.0 0.00 0.00 0.00 82 1014.6
20260510005512 53 66 0.0 0.0 0.00 0.00 0.00 81 1013.6
20260510004706 53 65 0.0 0.0 0.00 0.00 0.00 81 1014.7
20260510004513 53 65 0.0 0.0 0.00 0.00 0.00 81 1013.8
20260510004205 53 65 0.0 0.0 0.00 0.00 0.00 80 1014.8
20260510003705 53 65 0.0 0.0 0.00 0.00 0.00 80 1014.9
20260510003205 53 65 0.0 0.0 0.00 0.00 0.00 79 1015.0
20260510002705 54 65 0.0 0.0 0.00 0.00 0.00 79 1015.0
20260510002512 54 65 0.0 0.0 0.00 0.00 0.00 79 1014.1
20260510002205 54 65 0.0 0.0 0.00 0.00 0.00 79 1015.1
20260510001706 54 58 0.0 0.0 0.00 0.00 0.00 79 1015.0
20260510001205 54 76 0.0 0.0 0.00 0.00 0.00 79 1015.1
20260510000705 54 64 0.0 0.0 0.00 0.00 0.00 79 1015.2
20260510000511 54 61 0.0 0.0 0.00 0.00 0.00 79 1014.1
20260510000205 54 76 0.0 0.0 0.00 0.00 0.00 78 1015.2
20260509235705 54 94 0.0 0.0 0.00 0.00 0.00 78 1015.3
20260509235206 54 94 0.0 0.0 0.00 0.00 0.00 78 1015.4
20260509233512 55 62 0.0 0.0 0.00 0.00 0.00 77 1014.5
20260509233206 55 89 0.0 0.0 0.00 0.00 0.00 77 1015.5
20260509232512 55 48 0.0 0.0 0.00 0.00 0.00 77 1014.5
20260509232205 55 77 0.0 0.0 0.00 0.00 0.00 77 1015.5
20260509231705 55 83 0.0 0.0 0.00 0.00 0.00 76 1015.6
20260509231513 55 81 0.0 0.0 0.00 0.00 0.00 76 1014.5
20260509231206 55 72 0.0 0.0 0.00 0.00 0.00 76 1015.7
20260509230705 55 72 0.0 0.0 0.00 0.00 0.00 76 1015.7
20260509230205 55 83 0.0 0.0 0.00 0.00 0.00 76 1015.6
20260509225705 55 89 0.0 0.0 0.00 0.00 0.00 76 1015.7
20260509225512 56 89 0.0 0.0 0.00 0.00 0.00 76 1014.6
20260509224705 56 96 0.0 0.0 0.00 0.00 0.00 75 1015.7
20260509224512 56 94 0.0 0.0 0.00 0.00 0.00 75 1014.7
20260509223705 56 87 0.0 0.0 0.00 0.00 0.00 75 1015.8
20260509223512 56 130 0.0 0.0 0.00 0.00 0.00 75 1014.7
20260509223205 56 90 0.0 0.0 0.00 0.00 0.00 75 1015.8
20260509222705 56 82 0.0 0.0 0.00 0.00 0.00 75 1015.9
20260509222205 56 69 0.0 0.0 0.00 0.00 0.00 75 1015.9
20260509221205 56 77 0.0 0.0 0.00 0.00 0.00 74 1016.1